User: anonymous   Login
Location: Fort Wayne
(41.1310°N, 85.1290°W)
Time: 11:16:57
(UTC-05:00)
Language:

SL-08 RB Rocket - Orbit

View from above orbital plane
View from above orbital plane
View from above satellite
View from above satellite

Ground track
Ground track

The orbit data is extracted from the following two-line orbital elements,

1 26387U 00033D   18055.22190274 +.00000061 +00000-0 +18898-4 0  9993
2 26387 097.9370 117.5976 0025195 254.5336 141.3148 14.68363202202550
Epoch (UTC): 24 February 2018 05:19:32
Eccentricity: 0.0025195
inclination: 97.9370°
perigee height: 648 km
apogee height: 684 km
right ascension of ascending node: 117.5976°
argument of perigee: 254.5336°
revolutions per day: 14.68363202
mean anomaly at epoch: 141.3148°
orbit number at epoch: 20255

The dashed part of the orbit path shows where the satellite is in the earth's shadow,  

DLR